Погода в Славуте

Украина / Хмельницкая область     50°18′09″N   26°52′06″E
темп.,
°C
ветер,
м/с
пор.,
м/с
влажн.,
%
обл.,
%
осадки,
мм/ч
давл.,
гПа
погр.,
м
17 мая, вт
вт1700:00+8ссв2274100 0.0 102014
03:00+7ююз1170100 0.0 101910
06:00+8з2267100 0.0 101815
09:00+13зсз3555100 0.0 1017470
12:00+17сз69515 0.0 10171891
15:00+17сз7104495 0.0 10162025
18:00+14ссз684846 0.0 10161812
21:00+9ссз41057100 0.0 1017402
18 мая, ср
ср1800:00+5ссз411694 0.0 1019359
03:00+4сз5117832 0.0 1020506
06:00+4сз51180100 0.0 1021740
09:00+7ссз8136514 0.0 10221072
12:00+11ссз8114970 0.0 10231700
15:00+13ссз794986 0.0 10241763
18:00+14ссз69527 0.0 10241771
21:00+9сз411705 0.0 1026322
19 мая, чт
чт1900:00+6сз39825 0.0 1028169
03:00+5сз36905 0.0 1029106
06:00+4зсз35926 0.0 102993
09:00+11сз466423 0.0 1029508
12:00+16сз56475 0.0 10291250
15:00+18сз564241 0.0 10271456
18:00+18зсз464881 0.0 10261317
21:00+12з3371100 0.0 102629
20 мая, пт
пт2000:00+10зюз227255 0.0 102619
03:00+8юз337894 0.0 102638
06:00+8юз367875 0.0 102588
09:00+15юз4759100 0.0 1024294
12:00+19юз5747100 0.0 1022844
15:00+20зюз6848100 0.0 10201079
18:00+21зюз595361 0.0 10181326
21:00+16зюз31076100 0.0 1017217
21 мая, сб
сб2100:00+15юз41280100 0.0 1015283
03:00+15юз41173100 0.1 1013286
06:00+13юз41487100 0.8 1012412
09:00+14зюз51481100 1.1 1010577
12:00+20з9167158 0.1 10091488
15:00+22зсз9136285 0.4 10091588
18:00+19зсз71174100 0.4 10101152
21:00+15зсз399162 1.1 1010313